sat.trackr.live / text

‹ back to catalog

MISRSAT-2

NORAD 58497 · 2023-187B

PAYLOAD ACTIVE UNKNOWN

§ Identity

Operator
Country
EGYP
Launch date
2023-12-04
Launch site
JSC
Launch vehicle
Mass (kg)
RCS (m²)

External: N2YO · Heavens-Above · Gunter

§ Orbital elements

Epoch: 2026-09-21T22:13:14.280672Z

Period
97.07 min
Inclination
97.9219°
Eccentricity
0.0010844
Mean motion
14.83427075 rev/d
Perigee alt
610.9 km
Apogee alt
626.1 km
Semi-major
6,996.7 km
B*
8.4732e-5
RAAN
346.0878°
Arg perigee
184.1584°
Mean anomaly
175.9541°
Rev number
15,138

§ Raw data

MISRSAT-21 58497U 23187B   26264.92585973  .00000642  00000+0  84732-4 0  99912 58497  97.9219 346.0878 0010844 184.1584 175.9541 14.83427075151387

JSON: /api/v1/satellites/58497 · /tle

For live sub-satellite position, see the globe view (requires WebGL).

§ Visibility from observer

Set your observer location to see the next 7 days of passes ≥ 10°. The values pass through the URL so the page stays shareable.

No JS? Fill the form by hand. The geolocation button needs JavaScript.

§ Radio — SatNOGS DB

ModeDescriptionDownlinkUplink
BPSK S-band telemetry 2.281 GHz

1 transmitter · refreshed weekly from db.satnogs.org